Weather History for Kill Devil Hills, NC

Change the Weather History Date:

Thursday, February 21, 2013

  Actual Average (KMQI) Record (KMQI)
Temperature  
Mean Temperature 36 °F -  
Max Temperature 39 °F 51 °F 70 °F (1971)
Min Temperature 32 °F 38 °F 23 °F (1978)
Degree Days  
Heating Degree Days 30    
Moisture  
Dew Point 23 °F    
Average Humidity 58    
Maximum Humidity 71    
Minimum Humidity 39    
Precipitation  
Precipitation 0.00 in - - ()
Sea Level Pressure  
Sea Level Pressure 30.17 in    
Wind  
Wind Speed 7 mph (North)    
Max Wind Speed 10 mph    
Max Gust Speed 18 mph    
Visibility 10 miles    
Events      
Averages and records for this station are not official NWS values.
T = Trace of Precipitation, MM = Missing Value Source: NWS Daily Summary

Daily Weather History Graph

Daily Weather History Graph

Search for Another Location

Airport:

Trip Planner

Search our weather history database for the weather conditions in past years. The results will help you decide how hot, cold, wet, or windy it might be!

Date:

Astronomy

Feb. 21, 2013 Rise Set
Actual Time 6:42 AM EST 5:50 PM EST
Civil Twilight 6:16 AM EST 6:16 PM EST
Nautical Twilight 5:46 AM EST 6:46 PM EST
Astronomical Twilight 5:17 AM EST 7:15 PM EST
Moon 2:07 PM EST (2/21) 3:40 AM EST (2/21)
Length of Visible Light 11h 59m
Length of Day
11h 07m
Waxing Gibbous, 83% of the Moon is Illuminated
Feb 21
Waxing Gibbous
Feb 25
Full
Mar 4
Last Quarter
Mar 11
New
Mar 19
First Quarter

Hourly Weather History & Observations

Time (EST) Temp. Windchill Dew Point Humidity Pressure Visibility Wind Dir Wind Speed Gust Speed Precip Events Conditions
12:15 AM 38.5 °F 33.4 °F 29.7 °F 71% 30.10 in 10.0 mi North 6.9 mph - N/A   Clear
12:35 AM 37.8 °F 31.3 °F 28.4 °F 69% 30.09 in 10.0 mi North 9.2 mph - N/A   Clear
12:55 AM 36.9 °F 31.4 °F 25.9 °F 64% 30.09 in 10.0 mi NNE 6.9 mph - N/A   Clear
1:15 AM 36.3 °F 30.1 °F 25.0 °F 63% 30.09 in 10.0 mi NNE 8.1 mph - N/A   Clear
1:35 AM 36.0 °F 29.6 °F 25.2 °F 65% 30.09 in 10.0 mi NNE 8.1 mph 18.4 mph N/A   Clear
1:55 AM 35.6 °F 28.0 °F 24.8 °F 65% 30.09 in 10.0 mi North 10.4 mph 17.3 mph N/A   Clear
2:15 AM 35.6 °F 28.6 °F 24.4 °F 64% 30.10 in 10.0 mi NNE 9.2 mph - N/A   Clear
2:35 AM 35.1 °F 30.1 °F 25.2 °F 67% 30.09 in 10.0 mi NNE 5.8 mph - N/A   Clear
2:55 AM 34.7 °F 28.1 °F 25.0 °F 68% 30.09 in 10.0 mi NNE 8.1 mph - N/A   Clear
3:15 AM 34.5 °F 29.4 °F 25.0 °F 68% 30.10 in 10.0 mi North 5.8 mph - N/A   Clear
3:35 AM 34.2 °F 28.2 °F 25.2 °F 70% 30.10 in 10.0 mi North 6.9 mph - N/A   Clear
3:55 AM 33.6 °F 29.4 °F 24.6 °F 70% 30.11 in 10.0 mi North 4.6 mph - N/A   Clear
4:15 AM 33.6 °F 29.4 °F 24.6 °F 70% 30.12 in 10.0 mi North 4.6 mph - N/A   Clear
4:35 AM 33.1 °F 28.7 °F 24.6 °F 71% 30.12 in 10.0 mi North 4.6 mph - N/A   Clear
4:55 AM 33.1 °F 27.7 °F 24.6 °F 71% 30.13 in 10.0 mi North 5.8 mph - N/A   Clear
5:15 AM 32.9 °F 28.5 °F 24.3 °F 71% 30.13 in 10.0 mi North 4.6 mph - N/A   Clear
5:35 AM 32.9 °F 28.5 °F 24.1 °F 70% 30.14 in 10.0 mi North 4.6 mph - N/A   Clear
5:55 AM 32.4 °F 26.9 °F 23.2 °F 69% 30.14 in 10.0 mi North 5.8 mph - N/A   Clear
6:15 AM 32.4 °F 26.9 °F 22.6 °F 67% 30.14 in 10.0 mi North 5.8 mph - N/A   Clear
6:55 AM 32.0 °F 27.5 °F 23.2 °F 70% 30.15 in 10.0 mi North 4.6 mph - N/A   Clear
7:15 AM 32.0 °F 28.7 °F 22.5 °F 68% 30.16 in 10.0 mi NNW 3.5 mph - N/A   Clear
7:35 AM 32.4 °F - 22.8 °F 68% 30.17 in 10.0 mi Calm Calm - N/A   Clear
7:55 AM 33.3 °F 30.2 °F 23.7 °F 68% 30.18 in 10.0 mi NW 3.5 mph - N/A   Clear
8:15 AM 34.2 °F 30.0 °F 23.5 °F 65% 30.18 in 10.0 mi North 4.6 mph - N/A   Clear
8:35 AM 35.1 °F 32.2 °F 20.5 °F 55% 30.19 in 10.0 mi NW 3.5 mph - N/A   Clear
8:55 AM 35.8 °F 30.1 °F 16.9 °F 46% 30.19 in 10.0 mi NW 6.9 mph - N/A   Clear
9:15 AM 36.0 °F 29.6 °F 14.7 °F 42% 30.18 in 10.0 mi WNW 8.1 mph - N/A   Clear
9:35 AM 36.3 °F 30.1 °F 13.3 °F 39% 30.18 in 10.0 mi NNW 8.1 mph - N/A   Clear
9:55 AM 36.3 °F 30.8 °F 14.9 °F 42% 30.18 in 10.0 mi WNW 6.9 mph - N/A   Clear
10:15 AM 36.9 °F 30.7 °F 16.2 °F 43% 30.19 in 10.0 mi NW 8.1 mph - N/A   Clear
10:35 AM 36.9 °F 32.2 °F 16.5 °F 44% 30.18 in 10.0 mi NW 5.8 mph - N/A   Clear
10:55 AM 37.8 °F 33.3 °F 16.9 °F 43% 30.18 in 10.0 mi NW 5.8 mph - N/A   Clear
11:15 AM 37.8 °F 33.3 °F 16.7 °F 42% 30.17 in 10.0 mi WNW 5.8 mph - N/A   Clear
11:35 AM 37.8 °F 33.3 °F 16.7 °F 42% 30.18 in 10.0 mi WNW 5.8 mph - N/A   Clear
11:55 AM 38.1 °F 32.3 °F 18.1 °F 45% 30.17 in 10.0 mi West 8.1 mph - N/A   Clear
12:15 PM 37.9 °F 33.5 °F 18.1 °F 45% 30.17 in 10.0 mi West 5.8 mph - N/A   Clear
12:35 PM 38.3 °F 31.4 °F 17.8 °F 44% 30.15 in 10.0 mi West 10.4 mph - N/A   Clear
12:55 PM 38.8 °F 32.1 °F 18.3 °F 44% 30.15 in 10.0 mi West 10.4 mph - N/A   Clear
1:15 PM 39.0 °F 34.0 °F 18.0 °F 43% 30.14 in 10.0 mi West 6.9 mph - N/A   Clear
1:35 PM 39.6 °F 36.3 °F 18.0 °F 42% 30.14 in 10.0 mi NW 4.6 mph - N/A   Clear
1:55 PM 39.6 °F 33.5 °F 19.8 °F 45% 30.14 in 10.0 mi North 9.2 mph - N/A   Clear
2:15 PM 38.5 °F 33.4 °F 21.7 °F 51% 30.14 in 10.0 mi North 6.9 mph - N/A   Clear
2:35 PM 38.1 °F 32.3 °F 22.1 °F 53% 30.13 in 10.0 mi North 8.1 mph - N/A   Clear
2:55 PM 37.4 °F 32.1 °F 23.0 °F 56% 30.12 in 10.0 mi NNE 6.9 mph - N/A   Clear
3:15 PM 37.0 °F 34.5 °F 23.5 °F 58% 30.12 in 10.0 mi NNE 3.5 mph - N/A   Clear
3:35 PM 37.0 °F 32.4 °F 23.4 °F 58% 30.13 in 10.0 mi North 5.8 mph - N/A   Clear
3:55 PM 36.7 °F 32.0 °F 23.5 °F 59% 30.14 in 10.0 mi NE 5.8 mph - N/A   Clear
4:15 PM 36.5 °F 31.0 °F 23.5 °F 59% 30.13 in 10.0 mi NNE 6.9 mph - N/A   Clear
4:35 PM 36.3 °F 31.6 °F 23.5 °F 60% 30.14 in 10.0 mi NNE 5.8 mph - N/A   Clear
4:55 PM 36.3 °F 32.5 °F 23.7 °F 60% 30.15 in 10.0 mi NNE 4.6 mph - N/A   Clear
5:15 PM 36.1 °F 33.5 °F 24.3 °F 62% 30.16 in 10.0 mi NNE 3.5 mph - N/A   Clear
5:35 PM 36.1 °F 33.5 °F 24.8 °F 63% 30.16 in 10.0 mi North 3.5 mph - N/A   Clear
5:55 PM 35.8 °F 33.0 °F 25.0 °F 65% 30.17 in 10.0 mi North 3.5 mph - N/A   Clear
6:15 PM 36.1 °F 31.4 °F 25.5 °F 65% 30.18 in 10.0 mi NNW 5.8 mph - N/A   Clear
6:35 PM 36.7 °F 34.1 °F 25.2 °F 63% 30.19 in 10.0 mi NNW 3.5 mph - N/A   Clear
6:55 PM 37.0 °F 34.5 °F 25.2 °F 62% 30.20 in 10.0 mi NNW 3.5 mph - N/A   Clear
7:15 PM 37.0 °F 34.5 °F 25.2 °F 62% 30.21 in 10.0 mi NNW 3.5 mph - N/A   Clear
7:35 PM 37.2 °F 34.7 °F 25.2 °F 62% 30.22 in 10.0 mi NNW 3.5 mph - N/A   Clear
7:55 PM 37.0 °F 33.3 °F 25.3 °F 63% 30.23 in 10.0 mi NNW 4.6 mph - N/A   Clear
8:15 PM 37.0 °F 32.4 °F 25.0 °F 62% 30.23 in 10.0 mi NNW 5.8 mph - N/A   Clear
8:35 PM 37.4 °F 31.4 °F 23.9 °F 58% 30.23 in 10.0 mi North 8.1 mph - N/A   Clear
8:55 PM 37.8 °F 32.5 °F 25.0 °F 60% 30.23 in 10.0 mi North 6.9 mph - N/A   Clear
9:15 PM 37.9 °F 32.7 °F 24.6 °F 59% 30.24 in 10.0 mi North 6.9 mph - N/A   Clear
9:35 PM 37.8 °F 32.5 °F 25.0 °F 60% 30.25 in 10.0 mi North 6.9 mph - N/A   Clear
9:55 PM 37.4 °F 30.8 °F 24.1 °F 59% 30.25 in 10.0 mi North 9.2 mph 16.1 mph N/A   Clear
10:15 PM 37.6 °F 31.6 °F 23.9 °F 58% 30.25 in 10.0 mi North 8.1 mph - N/A   Clear
10:35 PM 37.8 °F 32.5 °F 23.5 °F 57% 30.26 in 10.0 mi North 6.9 mph - N/A   Clear
10:55 PM 37.6 °F 32.3 °F 22.3 °F 54% 30.28 in 10.0 mi North 6.9 mph - N/A   Clear
11:15 PM 37.6 °F 31.0 °F 21.4 °F 52% 30.28 in 10.0 mi North 9.2 mph - N/A   Clear
11:35 PM 37.4 °F 31.4 °F 21.7 °F 53% 30.27 in 10.0 mi North 8.1 mph - N/A   Clear
11:55 PM 37.2 °F 31.2 °F 22.6 °F 56% 30.26 in 10.0 mi North 8.1 mph - N/A   Clear